Voltar ao catálogo

YUNYAO-1 16

AtivoMeteoSSO
NORAD 60746·PAYLOAD·🇨🇳 China
Este nome de satélite ainda não foi confirmado por fontes oficiais.

Lançado Aug 29, 2024 de Yellow Sea Launch Area

Loading…

Próximas Passagens (próximas 24 horas)

TLE

AtualizadoSource: Space-Track

Época: Sep 14, 2026, 20:28 UTC

1 60746U 24153B   26257.85342273  .00011448  00000-0  33558-3 0  9999
2 60746  97.6904  40.9681 0009204 196.1617 163.9333 15.35331226113705

Acompanhe YUNYAO-1 16 em tempo real com AllMySat

Download on the App Store